• In United Kingdom
  • List of Countries
  • For 7 days
  • Water Temperature
  • Satellite Maps
  • Weather Map
  • Weather Widgets
  • user-avatar
    Login

    Hourly Weather Idzhewan

    Today, 21 October, Sunday

    Time Temperature Precipitation Wind Pressure Humidity
    00:00 +15°C° 0.1 mm 1 mps 694 mmHg 72%
    01:00 +15°C° 0 mm 1 mps 694 mmHg 73%
    02:00 +15°C° 0 mm 1 mps 694 mmHg 73%
    03:00 +14°C° 0 mm 1 mps 694 mmHg 73%
    04:00 +14°C° 0 mm 1 mps 694 mmHg 73%
    05:00 +14°C° 0 mm 1 mps 694 mmHg 73%
    06:00 +14°C° 0 mm 1 mps 694 mmHg 73%
    07:00 +15°C° 0 mm 1 mps 694 mmHg 66%
    08:00 +18°C° 0 mm 1 mps 694 mmHg 60%
    09:00 +20°C° 0 mm 1 mps 694 mmHg 54%
    10:00 +21°C° 0 mm 1 mps 694 mmHg 50%
    11:00 +21°C° 0 mm 2 mps 694 mmHg 46%
    12:00 +23°C° 0 mm 2 mps 694 mmHg 43%
    13:00 +23°C° 0 mm 2 mps 694 mmHg 42%
    14:00 +23°C° 0 mm 2 mps 694 mmHg 41%
    15:00 +24°C° 0 mm 2 mps 694 mmHg 41%
    16:00 +21°C° 0 mm 2 mps 694 mmHg 46%
    17:00 +20°C° 0 mm 1 mps 693 mmHg 52%
    18:00 +18°C° 0 mm 1 mps 693 mmHg 58%
    19:00 +18°C° 0 mm 1 mps 694 mmHg 59%
    20:00 +18°C° 0 mm 1 mps 694 mmHg 59%
    21:00 +16°C° 0 mm 1 mps 694 mmHg 60%
    22:00 +15°C° 0 mm 0 mps 694 mmHg 61%
    23:00 +14°C° 0 mm 0 mps 694 mmHg 63%

    Tomorrow, 22 October, Monday

    Time Temperature Precipitation Wind Pressure Humidity
    00:00 +14°C° 0 mm 0 mps 694 mmHg 64%
    01:00 +14°C° 0 mm 0 mps 694 mmHg 64%
    02:00 +15°C° 0 mm 1 mps 694 mmHg 65%
    03:00 +14°C° 0 mm 1 mps 694 mmHg 65%
    04:00 +14°C° 0 mm 1 mps 694 mmHg 65%
    05:00 +14°C° 0 mm 1 mps 694 mmHg 65%
    06:00 +14°C° 0 mm 1 mps 694 mmHg 65%
    07:00 +15°C° 0 mm 1 mps 694 mmHg 61%
    08:00 +18°C° 0 mm 1 mps 695 mmHg 56%
    09:00 +19°C° 0 mm 1 mps 695 mmHg 51%
    10:00 +19°C° 0 mm 2 mps 695 mmHg 49%
    11:00 +20°C° 0 mm 2 mps 695 mmHg 47%
    12:00 +21°C° 0 mm 2 mps 695 mmHg 44%
    13:00 +21°C° 0 mm 2 mps 695 mmHg 44%
    14:00 +21°C° 0 mm 2 mps 694 mmHg 44%
    15:00 +21°C° 0 mm 2 mps 694 mmHg 44%
    16:00 +19°C° 0 mm 2 mps 694 mmHg 50%
    17:00 +19°C° 0 mm 1 mps 694 mmHg 56%
    18:00 +16°C° 0 mm 1 mps 694 mmHg 63%
    19:00 +16°C° 0 mm 1 mps 694 mmHg 63%
    20:00 +16°C° 0 mm 1 mps 694 mmHg 64%
    21:00 +15°C° 0 mm 1 mps 695 mmHg 65%
    22:00 +15°C° 0 mm 1 mps 695 mmHg 65%
    23:00 +15°C° 0 mm 1 mps 695 mmHg 66%

    Day after tomorrow, 23 October, Tuesday

    Time Temperature Precipitation Wind Pressure Humidity
    00:00 +15°C° 0 mm 1 mps 695 mmHg 66%
    01:00 +14°C° 0 mm 1 mps 694 mmHg 67%
    02:00 +14°C° 0 mm 1 mps 694 mmHg 68%
    03:00 +14°C° 0 mm 1 mps 694 mmHg 68%
    04:00 +14°C° 0 mm 1 mps 694 mmHg 69%
    05:00 +14°C° 0 mm 1 mps 694 mmHg 69%
    06:00 +13°C° 0 mm 1 mps 694 mmHg 69%
    07:00 +15°C° 0 mm 1 mps 694 mmHg 63%
    08:00 +18°C° 0 mm 1 mps 695 mmHg 57%
    09:00 +19°C° 0 mm 1 mps 695 mmHg 52%
    10:00 +19°C° 0 mm 2 mps 695 mmHg 48%
    11:00 +20°C° 0 mm 2 mps 695 mmHg 45%
    12:00 +23°C° 0 mm 2 mps 694 mmHg 42%
    13:00 +21°C° 0 mm 2 mps 694 mmHg 42%
    14:00 +21°C° 0 mm 2 mps 694 mmHg 42%
    15:00 +21°C° 0 mm 2 mps 693 mmHg 42%
    16:00 +20°C° 0 mm 2 mps 693 mmHg 48%
    17:00 +19°C° 0 mm 1 mps 693 mmHg 55%
    18:00 +16°C° 0 mm 1 mps 693 mmHg 61%
    19:00 +16°C° 0 mm 1 mps 693 mmHg 61%
    20:00 +16°C° 0 mm 1 mps 693 mmHg 61%
    21:00 +16°C° 0 mm 1 mps 693 mmHg 61%
    22:00 +16°C° 0 mm 1 mps 693 mmHg 62%
    23:00 +15°C° 0 mm 1 mps 693 mmHg 63%

    24 October, Wednesday

    Time Temperature Precipitation Wind Pressure Humidity
    00:00 +15°C° 0 mm 1 mps 693 mmHg 63%
    01:00 +15°C° 0 mm 1 mps 692 mmHg 64%
    02:00 +15°C° 0 mm 1 mps 692 mmHg 64%
    03:00 +14°C° 0 mm 1 mps 692 mmHg 65%
    04:00 +14°C° 0 mm 2 mps 692 mmHg 65%
    05:00 +14°C° 0 mm 2 mps 692 mmHg 66%
    06:00 +14°C° 0 mm 2 mps 691 mmHg 66%
    07:00 +15°C° 0 mm 2 mps 692 mmHg 61%
    08:00 +17°C° 0 mm 2 mps 692 mmHg 56%
    09:00 +18°C° 0 mm 2 mps 692 mmHg 51%
    10:00 +20°C° 0 mm 3 mps 691 mmHg 48%
    11:00 +21°C° 0 mm 3 mps 691 mmHg 45%
    12:00 +22°C° 0 mm 3 mps 691 mmHg 42%
    13:00 +22°C° 0 mm 3 mps 690 mmHg 42%
    14:00 +21°C° 0 mm 3 mps 690 mmHg 43%
    15:00 +21°C° 0 mm 3 mps 689 mmHg 43%
    16:00 +20°C° 0 mm 3 mps 689 mmHg 48%
    17:00 +19°C° 0 mm 2 mps 689 mmHg 52%
    18:00 +18°C° 0 mm 2 mps 689 mmHg 56%
    19:00 +17°C° 0.1 mm 2 mps 688 mmHg 58%
    20:00 +17°C° 0.1 mm 2 mps 688 mmHg 60%
    21:00 +17°C° 0.1 mm 2 mps 688 mmHg 63%
    22:00 +16°C° 0.6 mm 2 mps 688 mmHg 66%
    23:00 +16°C° 0.6 mm 2 mps 688 mmHg 69%

    25 October, Thursday

    Time Temperature Precipitation Wind Pressure Humidity
    00:00 +16°C° 0.6 mm 2 mps 688 mmHg 72%
    01:00 +16°C° 0.5 mm 2 mps 687 mmHg 73%
    02:00 +15°C° 0.5 mm 2 mps 687 mmHg 74%
    03:00 +15°C° 0.5 mm 2 mps 687 mmHg 75%
    04:00 +15°C° 0 mm 2 mps 687 mmHg 75%
    05:00 +14°C° 0 mm 2 mps 686 mmHg 75%
    06:00 +14°C° 0 mm 2 mps 686 mmHg 76%
    07:00 +15°C° 0 mm 2 mps 686 mmHg 69%
    08:00 +17°C° 0 mm 3 mps 686 mmHg 63%
    09:00 +18°C° 0 mm 3 mps 686 mmHg 56%
    10:00 +20°C° 0 mm 4 mps 686 mmHg 51%
    11:00 +21°C° 0 mm 4 mps 686 mmHg 47%
    12:00 +22°C° 0 mm 5 mps 685 mmHg 42%
    13:00 +22°C° 0 mm 5 mps 685 mmHg 43%
    14:00 +22°C° 0 mm 5 mps 684 mmHg 43%
    15:00 +22°C° 0 mm 4 mps 684 mmHg 43%
    16:00 +21°C° 0.1 mm 3 mps 684 mmHg 49%
    17:00 +19°C° 0.1 mm 3 mps 684 mmHg 54%
    18:00 +18°C° 0.1 mm 2 mps 684 mmHg 60%
    19:00 +17°C° 0 mm 2 mps 684 mmHg 62%
    20:00 +17°C° 0 mm 2 mps 684 mmHg 64%
    21:00 +16°C° 0 mm 2 mps 684 mmHg 66%
    22:00 +16°C° 0.1 mm 2 mps 684 mmHg 67%
    23:00 +16°C° 0.1 mm 2 mps 684 mmHg 68%

    26 October, Friday

    Time Temperature Precipitation Wind Pressure Humidity
    00:00 +16°C° 0.1 mm 2 mps 684 mmHg 70%
    01:00 +16°C° 0 mm 2 mps 683 mmHg 71%
    02:00 +15°C° 0 mm 2 mps 683 mmHg 72%
    03:00 +15°C° 0 mm 2 mps 683 mmHg 73%
    04:00 +14°C° 0 mm 2 mps 683 mmHg 74%
    05:00 +14°C° 0 mm 2 mps 683 mmHg 75%
    06:00 +13°C° 0 mm 3 mps 684 mmHg 76%
    07:00 +14°C° 0 mm 3 mps 684 mmHg 70%
    08:00 +15°C° 0 mm 4 mps 684 mmHg 65%
    09:00 +16°C° 0 mm 5 mps 685 mmHg 60%
    10:00 +16°C° 0.2 mm 5 mps 685 mmHg 59%
    11:00 +16°C° 0.2 mm 5 mps 685 mmHg 58%
    12:00 +16°C° 0.2 mm 6 mps 685 mmHg 58%
    13:00 +15°C° 1.3 mm 5 mps 685 mmHg 63%
    14:00 +14°C° 1.3 mm 4 mps 685 mmHg 68%
    15:00 +13°C° 1.3 mm 3 mps 685 mmHg 74%
    16:00 +12°C° 1.5 mm 3 mps 686 mmHg 77%
    17:00 +11°C° 1.5 mm 3 mps 686 mmHg 80%
    18:00 +12°C° 1.5 mm 2 mps 687 mmHg 84%
    19:00 +10°C° 0.6 mm 2 mps 688 mmHg 84%
    20:00 +10°C° 0.6 mm 3 mps 688 mmHg 84%
    21:00 +10°C° 0.6 mm 3 mps 689 mmHg 84%
    22:00 +9°C° 1.1 mm 3 mps 689 mmHg 84%
    23:00 +9°C° 1.1 mm 3 mps 690 mmHg 84%
    Show more